Regional Weather Roundup
Issued by NWS Sioux Falls, SD

Home | Current Version | Previous Version | Graphics & Text | Print | Product List | Glossary Off
Versions: 1 2 3 4 5 6 7 8 9 10 11 12 13 14 15 16 17 18 19 20 21 22 23 24 25 26 27 28 29 30 31 32 33 34 35 36 37 38 39 40 41 42 43 44 45 46 47 48 49 50

000
ASUS43 KFSD 270802
RWRFSD

WEATHER ROUNDUP FOR SE SOUTH DAKOTA/SW MINNESOTA/NW IOWA
NATIONAL WEATHER SERVICE SIOUX FALLS SD
300 AM CDT SAT AUG 27 2016

NOTE: "FAIR" INDICATES FEW OR NO CLOUDS BELOW 12,000 FEET WITH NO
SIGNIFICANT WEATHER AND OR OBSTRUCTIONS TO VISIBILITY.


SDZ038>040-050-052>070-270900-
SOUTHEAST SOUTH DAKOTA

CITY           SKY/WX    TMP DP  RH WIND       PRES   REMARKS
BROOKINGS      CLOUDY    61  59  93 SE7       30.03F
CHAMBERLAIN    CLEAR     58  58  99 SE6       30.00S
HURON          CLOUDY    59  57  93 SE6       30.00F
MADISON        CLOUDY    59  59 100 S15       30.03F
MITCHELL       PTCLDY    62  60  93 SE6       30.01F
SIOUX FALLS    HVY RAIN  62  60  93 E7        30.03F FOG
WINNER         FAIR      59  56  89 S8        30.00F
YANKTON        CLOUDY    63  59  88 E3        30.01S
$$

MNZ071-072-080-081-089-090-097-098-270900-
SOUTHWEST MINNESOTA

CITY           SKY/WX    TMP DP  RH WIND       PRES   REMARKS
FAIRMONT       CLOUDY    61  59  93 SE3       30.06F
JACKSON          N/A     63  57  82 E3        30.06F
LUVERNE        RAIN      61  55  82 E3        30.05F
MARSHALL       CLOUDY    62  59  90 S6        30.05F
MONTEVIDEO     CLOUDY    61  57  88 S5        30.06F
REDWOOD FALLS  CLOUDY    61  58  90 CALM      30.05F
TRACY          CLOUDY    63  60  90 SE3       30.05F
WINDOM         CLOUDY    63  57  82 SE3       30.05F
WORTHINGTON    CLOUDY    61  59  93 E6        30.05F
$$

IAZ001>003-012>014-020>022-031-032-NEZ013-014-SDZ071-270900-
NORTHWEST IOWA

CITY           SKY/WX    TMP DP  RH WIND       PRES   REMARKS
CHEROKEE       CLOUDY    62  60  95 E6        30.02F
DENISON        CLOUDY   N/A N/A N/A SE7       30.02S
ESTHERVILLE    CLOUDY    61  60  97 E5        30.05F
LE MARS        CLOUDY    63  59  88 VRB5      30.03S
ORANGE CITY    CLOUDY    63  59  88 E5        30.03F
SHELDON        CLOUDY    63  61  94 E6        30.02F
SIOUX CITY     CLOUDY    65  61  87 SE6       30.00F
SPENCER        CLOUDY    62  57  83 E7        30.04F
STORM LAKE     CLOUDY    61  59  94 SE8       30.04F
$$

ABBREVIATIONS USED IN REMARKS
   TC - TEMPERATURE IN CELSIUS
  WCI - WIND CHILL INDEX
   HX - HEAT INDEX
  VSB - VISIBILITY




USA.gov is the U.S. government's official web portal to all federal, state and local government web resources and services.